Simultaneous Nadir Overpasses (SNOs) Predictions

Prediction of SNOs between FY3D and LANDSAT-8 Satellite Orbit:

Table of predicted SNOs for the next 14.0 days since TLE Epoch: 7/31/2021
Index Date (FY3D) Time (FY3D) Lat,Lon (FY3D) SZA (FY3D ) Date (LANDSAT-8) Time (LANDSAT-8) Lat,Lon (LANDSAT-8) SZA (LANDSAT-8 ) Distance(km) Time Diff (sec)
1 07/31/2021 09:56:19 71.21, 28.83 53.00 07/31/2021 09:57:20 71.22, 28.77 53.00 2.51 61
2 07/31/2021 10:47:01 -71.16,-163.78 127.04 07/31/2021 10:46:48 -71.16,-163.69 127.05 3.13 13
3 07/31/2021 11:37:33 70.48, 4.68 52.26 07/31/2021 11:36:24 70.57, 3.04 52.40 61.45 69
4 08/03/2021 02:12:37 71.24, 144.72 53.71 08/03/2021 02:13:49 71.23, 144.67 53.70 1.85 72
5 08/03/2021 03:03:19 -71.14, -47.79 126.39 08/03/2021 03:03:19 -71.12, -47.87 126.40 3.34 0
6 08/03/2021 03:54:00 70.93, 119.88 53.41 08/03/2021 03:52:47 70.97, 119.53 53.46 13.57 73
7 08/05/2021 18:29:03 71.63,-100.04 54.84 08/05/2021 18:30:13 71.57, -98.90 54.74 40.48 70
8 08/05/2021 19:19:38 -71.17, 68.11 125.64 08/05/2021 19:19:48 -71.19, 68.12 125.62 2.79 10
9 08/05/2021 20:10:21 71.06,-124.40 54.26 08/05/2021 20:09:15 71.09,-124.41 54.29 2.57 66
10 08/08/2021 10:45:30 72.07, 15.08 56.05 08/08/2021 10:46:36 71.95, 17.63 55.86 88.85 66
11 08/08/2021 11:35:57 -71.20,-176.00 124.86 08/08/2021 11:36:18 -71.20,-175.99 124.86 0.72 21
12 08/08/2021 12:26:40 71.09, -8.51 55.04 08/08/2021 12:25:45 71.09, -8.52 55.05 0.29 55
13 08/11/2021 03:52:15 -71.23, -60.11 124.05 08/11/2021 03:52:47 -71.21, -60.10 124.08 2.36 32
14 08/11/2021 04:42:58 71.13, 107.37 55.86 08/11/2021 04:42:14 71.09, 107.37 55.83 3.65 44
15 08/13/2021 20:08:33 -71.21, 55.86 123.27 08/13/2021 20:09:17 -71.21, 55.78 123.27 3.04 44
16 08/13/2021 20:59:17 71.16,-136.74 56.70 08/13/2021 20:58:43 71.15,-136.67 56.68 2.90 34



Historial Predications of SNOs between FY3D and LANDSAT-8
